GW0821 Weather Reports


time (UTC)temp
F
wind
direction
speed
knots
gust
knots
rain 1hr
in
rain 24hr
in
rain mn
in
humidity
%
barometer
mb
20260831170052 80 140 4.3 11.3 0.00 0.00 0.00 64 1018.5
20260831164550 81 168 2.6 9.6 0.00 0.00 0.00 67 1018.6
20260831163051 80 153 2.6 10.4 0.00 0.00 0.00 70 1018.6
20260831161552 81 174 3.5 9.6 0.00 0.00 0.00 69 1018.6
20260831160058 81 148 4.3 9.6 0.00 0.00 0.00 68 1018.5
20260831154618 83 144 5.2 12.2 0.00 0.00 0.00 66 1018.7
20260831153052 82 212 3.5 12.2 0.00 0.00 0.00 67 1018.5
20260831151615 84 129 3.5 13.0 0.00 0.00 0.00 65 1018.6
20260831150055 83 170 3.5 11.3 0.00 0.00 0.00 65 1018.5
20260831144552 85 192 5.2 12.2 0.00 0.00 0.00 63 1018.4
20260831143050 85 181 4.3 11.3 0.00 0.00 0.00 61 1018.3
20260831141548 86 220 3.5 10.4 0.00 0.00 0.00 59 1018.3
20260831140058 86 200 3.5 11.3 0.00 0.00 0.00 58 1018.3
20260831134554 86 163 3.5 10.4 0.00 0.00 0.00 55 1018.2
20260831133052 86 229 3.5 9.6 0.00 0.00 0.00 55 1018.2
20260831131608 85 231 1.7 10.4 0.00 0.00 0.00 55 1018.3
20260831130101 85 229 3.5 7.8 0.00 0.00 0.00 54 1018.4
20260831124601 85 139 5.2 8.7 0.00 0.00 0.00 53 1018.4
20260831123052 85 143 3.5 8.7 0.00 0.00 0.00 53 1018.5
20260831121556 84 134 3.5 7.8 0.00 0.00 0.00 52 1018.6
20260831120056 84 198 3.5 8.7 0.00 0.00 0.00 52 1018.8
20260831114551 83 141 2.6 11.3 0.00 0.00 0.00 53 1018.8
20260831113103 83 200 2.6 8.7 0.00 0.00 0.00 53 1018.9
20260831111555 82 162 4.3 9.6 0.00 0.00 0.00 54 1018.9
20260831110056 81 182 2.6 8.7 0.00 0.00 0.00 54 1019.2
20260831104611 80 219 2.6 9.6 0.00 0.00 0.00 57 1019.2
20260831103054 80 141 6.1 10.4 0.00 0.00 0.00 57 1019.2
20260831101552 80 182 3.5 8.7 0.00 0.00 0.00 56 1019.3
20260831100108 80 212 1.7 7.0 0.00 0.00 0.00 58 1019.4
20260831094550 80 165 2.6 9.6 0.00 0.00 0.00 59 1019.4
20260831093050 79 194 4.3 8.7 0.00 0.00 0.00 61 1019.5
20260831091554 79 148 3.5 7.8 0.00 0.00 0.00 60 1019.3
20260831090051 79 222 1.7 7.0 0.00 0.00 0.00 56 1019.2
20260831084601 78 148 2.6 7.8 0.00 0.00 0.00 51 1019.1
20260831083054 77 205 2.6 5.2 0.00 0.00 0.00 53 1019.0
20260831081553 74 113 0.0 1.7 0.00 0.00 0.00 58 1018.9
20260831080056 72 221 0.0 0.9 0.00 0.00 0.00 61 1018.7
20260831074557 71 0 0.0 1.7 0.00 0.00 0.00 63 1018.7
20260831073103 69 0 0.0 0.9 0.00 0.00 0.00 65 1018.7
20260831071549 68 0 0.0 0.0 0.00 0.00 0.00 65 1018.7
20260831070050 65 0 0.0 0.9 0.00 0.00 0.00 69 1018.8
20260831064554 63 0 0.0 0.0 0.00 0.00 0.00 72 1018.7
20260831063054 60 0 0.0 0.0 0.00 0.00 0.00 77 1018.6
20260831061551 58 0 0.0 0.9 0.00 0.00 0.00 79 1018.4
20260831060051 58 0 0.0 0.0 0.00 0.00 0.00 80 1018.3
20260831054555 58 0 0.0 0.0 0.00 0.00 0.00 79 1018.2
20260831053049 57 0 0.0 0.0 0.00 0.00 0.00 80 1018.2
20260831051556 57 0 0.0 0.0 0.00 0.00 0.00 80 1018.0
20260831050056 57 0 0.0 0.0 0.00 0.00 0.00 78 1017.9
20260831044556 58 0 0.0 0.0 0.00 0.00 0.00 78 1017.9
20260831043058 58 0 0.0 0.0 0.00 0.00 0.00 77 1017.8
20260831041559 58 0 0.0 0.0 0.00 0.00 0.00 77 1017.8
20260831040052 58 0 0.0 0.0 0.00 0.00 0.00 76 1017.8
20260831034556 58 0 0.0 0.0 0.00 0.00 0.00 76 1017.7
20260831033049 59 0 0.0 0.0 0.00 0.00 0.00 75 1017.9
20260831031556 59 0 0.0 0.0 0.00 0.00 0.00 74 1017.8
20260831024548 60 0 0.0 0.0 0.00 0.00 0.00 73 1017.5
20260831023056 60 0 0.0 0.0 0.00 0.00 0.00 72 1017.4
20260831021553 60 0 0.0 0.0 0.00 0.00 0.00 72 1017.5
20260831020052 61 0 0.0 0.0 0.00 0.00 0.00 70 1017.5
20260831014602 61 0 0.0 0.0 0.00 0.00 0.00 70 1017.6
20260831013057 61 0 0.0 0.0 0.00 0.00 0.00 70 1017.6
20260831011615 62 0 0.0 0.0 0.00 0.00 0.00 69 1017.7
20260831010058 62 0 0.0 0.0 0.00 0.00 0.00 68 1017.7
20260831004555 62 0 0.0 0.9 0.00 0.00 0.00 67 1017.5
20260831003054 62 0 0.0 0.0 0.00 0.00 0.00 67 1017.4
20260831001600 63 0 0.0 0.0 0.00 0.00 0.00 66 1017.4
20260831000058 63 0 0.0 0.9 0.00 0.00 0.00 66 1017.4
20260830234555 64 0 0.0 0.9 0.00 0.00 0.00 66 1017.4
20260830233055 64 0 0.0 0.0 0.00 0.00 0.00 64 1017.5
20260830231608 65 0 0.0 0.0 0.00 0.00 0.00 64 1017.5
20260830230057 65 0 0.0 0.0 0.00 0.00 0.00 64 1017.5
20260830224611 65 0 0.0 0.0 0.00 0.00 0.00 64 1017.5
20260830223054 66 0 0.0 0.0 0.00 0.00 0.00 64 1017.4
20260830221548 66 0 0.0 0.0 0.00 0.00 0.00 65 1017.4
20260830214557 67 0 0.0 0.0 0.00 0.00 0.00 65 1017.2
20260830213053 68 0 0.0 0.0 0.00 0.00 0.00 65 1017.2
20260830211551 68 0 0.0 0.0 0.00 0.00 0.00 64 1017.1
20260830210100 69 0 0.0 0.0 0.00 0.00 0.00 64 1017.1
20260830204549 70 0 0.0 0.0 0.00 0.00 0.00 63 1017.1
20260830203056 71 0 0.0 0.0 0.00 0.00 0.00 61 1016.8
20260830201552 72 0 0.0 0.0 0.00 0.00 0.00 61 1016.6
20260830200050 73 0 0.0 0.0 0.00 0.00 0.00 59 1016.4
20260830194601 74 0 0.0 0.0 0.00 0.00 0.00 57 1016.3
20260830193055 75 0 0.0 0.9 0.00 0.00 0.00 56 1016.2
20260830191551 76 0 0.0 3.5 0.00 0.00 0.00 54 1015.9
20260830190051 77 149 0.9 3.5 0.00 0.00 0.00 53 1015.7
20260830184559 78 151 1.7 5.2 0.00 0.00 0.00 51 1015.6
20260830183054 79 164 1.7 4.3 0.00 0.00 0.00 49 1015.6
20260830181551 79 118 2.6 7.0 0.00 0.00 0.00 48 1015.5
20260830180053 80 151 2.6 7.0 0.00 0.00 0.00 47 1015.4
20260830174555 81 139 2.6 7.8 0.00 0.00 0.00 45 1015.4
20260830173053 83 138 3.5 8.7 0.00 0.00 0.00 44 1015.3
20260830171557 84 200 3.5 8.7 0.00 0.00 0.00 43 1015.4